sat.trackr.live / text

‹ back to catalog

STARLINK-5240

NORAD 54187 · 2022-141AG

PAYLOAD ACTIVE UNKNOWN

§ Identity

Operator
Country
US
Launch date
2022-10-28
Launch site
AFWTR
Launch vehicle
Mass (kg)
RCS (m²)

Purposes: comms

External: N2YO · Heavens-Above · Gunter

§ Orbital elements

Epoch: 2026-09-20T07:32:32.394912Z

Period
93.85 min
Inclination
53.1600°
Eccentricity
0.0001269
Mean motion
15.34389293 rev/d
Perigee alt
461.9 km
Apogee alt
463.6 km
Semi-major
6,840.9 km
B*
1.6144e-5
RAAN
194.7263°
Arg perigee
93.8692°
Mean anomaly
266.2455°
Rev number
21,545

§ Raw data

STARLINK-52401 54187U 22141AG  26263.31426383  .00000169  00000+0  16144-4 0  99992 54187  53.1600 194.7263 0001269  93.8692 266.2455 15.34389293215453

JSON: /api/v1/satellites/54187 · /tle

For live sub-satellite position, see the globe view (requires WebGL).

§ Visibility from observer

Set your observer location to see the next 7 days of passes ≥ 10°. The values pass through the URL so the page stays shareable.

No JS? Fill the form by hand. The geolocation button needs JavaScript.